Flag for U.S.A. Weather past 2 weeks in Escondido, California, U.S.A.

Now
63 °F

Low clouds.


Feels Like: 63 °F
Forecast: 62 / 75 °F
Wind: No wind

Location: Ramona Airport

Current Time: Jul 5, 2015 at 8:50:31 AM

Latest Report: Jul 5, 2015 at 7:53 AM


Visibility: 8 mi

Pressure: 29.96 "Hg

Humidity: 84%

Dew point: 58 °F

Location of EscondidoLocation

Historic Weather in Escondido — Graph

°F

Escondido temperature yesterday

Maximum temperature yesterday: 82 °F (at 1:53 PM)
Minimum temperature yesterday: 60 °F (at 9:53 PM)
Average temperature yesterday: 68 °F

Past Weeks' High & Low Weather Summary

 TemperatureHumidityPressure
High93 °F (Jun 20, 12:53 PM)100% (Jul 3, 6:53 AM)30.04 "Hg (Jul 3, 6:53 AM)
Low50 °F (Jun 21, 5:53 AM)17% (Jun 20, 9:53 AM)29.80 "Hg (Jun 30, 6:53 PM)
Average73 °F62%29.89 "Hg
* Reported Jun 20 6:53 AM — Jul 5 6:53 AM, Escondido, Weather by CustomWeather, © 2015

Note: Actual official high and low records may vary slightly from our data, if they occured in-between our weather recording intervals... More about our weather records

Advertising

Escondido weather history for previous 24 hours

 ConditionsComfort  
Time TempWeatherWind HumidityBarometerVisibility
6:53 AM
Sun, Jul 5
62 °FLow clouds.No wind86%29.93 "Hg7 mi
5:53 AM61 °FLow clouds.3 mph90%29.92 "Hg9 mi
4:53 AM61 °FLow clouds.5 mph90%29.90 "Hg8 mi
3:53 AM62 °FLow clouds.3 mph86%29.90 "Hg10 mi
2:53 AM61 °FLow clouds.No wind90%29.90 "Hg10 mi
1:53 AM61 °FLow clouds.No wind90%29.90 "Hg10 mi
12:53 AM62 °FLow clouds.3 mph86%29.91 "Hg10 mi
11:53 PM
Sat, Jul 4
62 °FLow clouds.3 mph86%29.92 "Hg10 mi
10:53 PM60 °FPassing clouds.5 mph90%29.93 "Hg10 mi
9:53 PM60 °FClear.6 mph90%29.92 "Hg10 mi
8:53 PM62 °FSunny.7 mph83%29.90 "Hg10 mi
7:53 PM65 °FSunny.12 mph78%29.88 "Hg10 mi
6:53 PM71 °FSunny.14 mph63%29.85 "Hg10 mi
5:53 PM77 °FSunny.9 mph50%29.83 "Hg10 mi
4:53 PM79 °FSunny.10 mph48%29.84 "Hg10 mi
3:53 PM80 °FSunny.10 mph49%29.85 "Hg10 mi
2:53 PM82 °FSunny.12 mph48%29.85 "Hg10 mi
1:53 PM82 °FSunny.10 mph49%29.86 "Hg10 mi
12:53 PM80 °FSunny.10 mph52%29.88 "Hg10 mi
11:53 AM77 °FPassing clouds.8 mph58%29.88 "Hg10 mi
10:53 AM74 °FPassing clouds.9 mph64%29.89 "Hg10 mi
9:53 AM69 °FScattered clouds.3 mph76%29.88 "Hg9 mi
8:53 AM65 °FLow clouds.5 mph85%29.88 "Hg4 mi
Weather by CustomWeather, © 2015

See weather overviewHow to use our weather pages